Weather History for KFSO - February, 2014

Change the Weather History Date:

Monday, February 10, 2014

  Actual Average (KPBG) Record (KPBG)
Temperature  
Mean Temperature 17 °F 19 °F  
Max Temperature 24 °F 29 °F 45 °F (1955)
Min Temperature 10 °F 9 °F -20 °F (1951)
Degree Days  
Heating Degree Days 48 46  
Month to date heating degree days 470  
Since 1 July heating degree days 4846  
Cooling Degree Days 0 0  
Month to date cooling degree days 0  
Year to date cooling degree days 0  
Moisture  
Dew Point 9 °F    
Average Humidity 73    
Maximum Humidity 87    
Minimum Humidity 50    
Precipitation  
Precipitation 0.00 in - 0.45 in (1965)
Month to date precipitation  
Year to date precipitation  
Sea Level Pressure  
Sea Level Pressure 30.09 in    
Wind  
Wind Speed 2 mph (NW)    
Max Wind Speed 7 mph    
Max Gust Speed -    
Visibility 7 miles    
Events Snow    
T = Trace of Precipitation, MM = Missing Value Source: NWS Daily Summary

Daily Weather History Graph

Daily Weather History Graph

Search for Another Location

Airport or City:

Trip Planner

Search our weather history database for the weather conditions in past years. The results will help you decide how hot, cold, wet, or windy it might be!

Date:

Astronomy

Feb. 10, 2014 Rise Set
Actual Time 7:00 AM EST 5:13 PM EST
Civil Twilight 6:29 AM EST 5:43 PM EST
Nautical Twilight 5:55 AM EST 6:18 PM EST
Astronomical Twilight 5:21 AM EST 6:52 PM EST
Moon 1:35 PM EST (2/10) 3:56 AM EST (2/10)
Length of Visible Light 11h 13m
Length of Day
10h 12m
Waxing Gibbous, 84% of the Moon is Illuminated
Feb 10
Waxing Gibbous
Feb 14
Full
Feb 22
Last Quarter
Mar 1
New
Mar 8
First Quarter

Hourly Weather History & Observations

Time (EST) Temp. Windchill Dew Point Humidity Pressure Visibility Wind Dir Wind Speed Gust Speed Precip Events Conditions
12:15 AM 18.3 °F 13.1 °F 14.4 °F 85% 29.97 in 2.0 mi North 3.5 mph - N/A Snow Light Snow
12:35 AM 18.3 °F 10.2 °F 14.5 °F 85% 29.97 in 2.0 mi North 5.8 mph - N/A Snow Light Snow
12:55 AM 18.3 °F 13.1 °F 14.5 °F 85% 29.97 in 2.5 mi NNW 3.5 mph - N/A Snow Light Snow
1:15 AM 18.3 °F 11.5 °F 14.7 °F 86% 29.97 in 2.5 mi North 4.6 mph - N/A Snow Light Snow
1:35 AM 18.0 °F 11.1 °F 14.4 °F 86% 29.97 in 3.0 mi North 4.6 mph - N/A Snow Light Snow
1:55 AM 16.9 °F - 13.3 °F 86% 29.98 in 3.0 mi Calm Calm - N/A Snow Light Snow
2:15 AM 15.8 °F 10.2 °F 12.2 °F 86% 29.98 in 3.0 mi NNW 3.5 mph - N/A Snow Light Snow
2:35 AM 15.8 °F - 12.2 °F 86% 29.99 in 5.0 mi Calm Calm - N/A   Overcast
2:55 AM 15.8 °F - 12.2 °F 86% 29.99 in 5.0 mi Calm Calm - N/A   Mostly Cloudy
3:15 AM 15.8 °F - 12.6 °F 87% 29.99 in 4.0 mi Calm Calm - N/A Snow Light Snow
3:35 AM 15.8 °F - 12.4 °F 86% 29.99 in 1.8 mi Calm Calm - N/A Snow Light Snow
3:55 AM 15.8 °F - 12.2 °F 86% 30.00 in 1.2 mi Calm Calm - N/A Snow Light Snow
4:15 AM 15.8 °F - 12.2 °F 86% 30.00 in 1.2 mi Calm Calm - N/A Snow Light Snow
4:35 AM 13.5 °F - 10.0 °F 86% 30.00 in 1.8 mi Calm Calm - N/A Snow Light Snow
4:55 AM 15.8 °F - 12.2 °F 86% 30.01 in 2.0 mi Calm Calm - N/A Snow Light Snow
5:15 AM 15.8 °F - 12.2 °F 86% 30.02 in 1.5 mi Calm Calm - N/A Snow Light Snow
5:35 AM 14.4 °F - 10.8 °F 86% 30.02 in 1.0 mi Calm Calm - N/A Snow Snow
5:55 AM 15.8 °F - 12.2 °F 86% 30.02 in 3.0 mi Calm Calm - N/A Snow Light Snow
6:15 AM 15.8 °F - 12.2 °F 86% 30.03 in 2.5 mi Calm Calm - N/A Snow Light Snow
6:35 AM 15.8 °F - 12.2 °F 86% 30.04 in 4.0 mi Calm Calm - N/A Snow Light Snow
6:55 AM 15.8 °F - 12.2 °F 86% 30.04 in 7.0 mi Calm Calm - N/A   Overcast
7:15 AM 15.8 °F - 12.2 °F 86% 30.04 in 3.0 mi Calm Calm - N/A Snow Light Snow
7:35 AM 13.5 °F - 9.9 °F 86% 30.05 in 5.0 mi Calm Calm - N/A   Scattered Clouds
7:55 AM 13.1 °F - 9.7 °F 86% 30.06 in 5.0 mi Calm Calm - N/A   Clear
8:15 AM 15.8 °F - 12.2 °F 86% 30.07 in 10.0 mi Calm Calm - N/A   Clear
8:35 AM 15.8 °F 10.2 °F 11.7 °F 84% 30.07 in 10.0 mi WNW 3.5 mph - N/A   Clear
8:55 AM 15.8 °F 10.2 °F 11.1 °F 82% 30.07 in 10.0 mi West 3.5 mph - N/A   Clear
9:15 AM 17.4 °F 10.4 °F 11.8 °F 79% 30.08 in 10.0 mi West 4.6 mph - N/A   Clear
9:35 AM 18.3 °F - 12.0 °F 76% 30.08 in 10.0 mi Calm Calm - N/A   Clear
9:55 AM 18.5 °F 13.3 °F 11.3 °F 73% 30.08 in 10.0 mi WNW 3.5 mph - N/A   Clear
10:15 AM 19.0 °F 13.9 °F 10.9 °F 71% 30.09 in 10.0 mi West 3.5 mph - N/A   Clear
10:35 AM 21.6 °F 16.8 °F 12.0 °F 67% 30.09 in 10.0 mi NW 3.5 mph - N/A   Scattered Clouds
10:55 AM 22.1 °F 14.7 °F 10.4 °F 61% 30.09 in 10.0 mi NW 5.8 mph - N/A   Mostly Cloudy
11:15 AM 20.8 °F 14.4 °F 9.7 °F 62% 30.10 in 10.0 mi NW 4.6 mph - N/A   Mostly Cloudy
11:35 AM 20.8 °F 14.4 °F 9.5 °F 62% 30.10 in 10.0 mi NW 4.6 mph - N/A   Mostly Cloudy
11:55 AM 19.8 °F 10.8 °F 8.6 °F 62% 30.09 in 10.0 mi NW 6.9 mph - N/A   Scattered Clouds
12:15 PM 20.8 °F 13.2 °F 8.8 °F 60% 30.09 in 10.0 mi WNW 5.8 mph - N/A   Scattered Clouds
12:35 PM 23.2 °F 17.2 °F 9.1 °F 55% 30.09 in 10.0 mi West 4.6 mph - N/A   Clear
12:55 PM 22.1 °F 15.9 °F 9.9 °F 59% 30.08 in 10.0 mi NW 4.6 mph - N/A   Clear
1:15 PM 24.3 °F 17.3 °F 11.5 °F 58% 30.08 in 4.0 mi North 5.8 mph - N/A Snow Light Snow
1:35 PM 22.1 °F 17.4 °F 12.2 °F 66% 30.08 in 2.0 mi NNW 3.5 mph - N/A Snow Light Snow
1:55 PM 22.1 °F 14.7 °F 12.0 °F 65% 30.08 in 4.0 mi NW 5.8 mph - N/A Snow Light Snow
2:15 PM 21.2 °F 14.9 °F 10.8 °F 64% 30.08 in 7.0 mi NNW 4.6 mph - N/A   Overcast
2:35 PM 24.3 °F - 13.1 °F 63% 30.09 in 10.0 mi Calm Calm - N/A   Mostly Cloudy
2:55 PM 23.4 °F 17.4 °F 9.5 °F 55% 30.10 in 10.0 mi NW 4.6 mph - N/A   Mostly Cloudy
3:15 PM 23.4 °F 16.2 °F 7.7 °F 51% 30.10 in 10.0 mi WNW 5.8 mph - N/A   Clear
3:35 PM 23.2 °F 16.0 °F 7.3 °F 51% 30.10 in 10.0 mi NW 5.8 mph - N/A   Scattered Clouds
3:55 PM 22.1 °F 15.9 °F 6.8 °F 52% 30.11 in 10.0 mi NW 4.6 mph - N/A   Scattered Clouds
4:15 PM 21.4 °F 15.1 °F 5.5 °F 51% 30.11 in 10.0 mi NW 4.6 mph - N/A   Scattered Clouds
4:35 PM 20.8 °F 16.0 °F 4.6 °F 50% 30.12 in 10.0 mi West 3.5 mph - N/A   Scattered Clouds
4:55 PM 19.4 °F - 4.6 °F 53% 30.12 in 10.0 mi Calm Calm - N/A   Scattered Clouds
5:15 PM 18.5 °F - 5.2 °F 56% 30.13 in 10.0 mi Calm Calm - N/A   Scattered Clouds
5:35 PM 18.3 °F - 6.3 °F 59% 30.14 in 10.0 mi Calm Calm - N/A   Clear
5:55 PM 16.9 °F - 5.9 °F 62% 30.15 in 10.0 mi Calm Calm - N/A   Clear
6:15 PM 15.8 °F - 5.9 °F 65% 30.15 in 10.0 mi Calm Calm - N/A   Scattered Clouds
6:35 PM 15.8 °F - 6.3 °F 66% 30.15 in 10.0 mi Calm Calm - N/A   Scattered Clouds
6:55 PM 15.8 °F - 6.8 °F 68% 30.16 in 10.0 mi Calm Calm - N/A   Mostly Cloudy
7:15 PM 13.1 °F - 5.2 °F 71% 30.16 in 10.0 mi Calm Calm - N/A   Overcast
7:35 PM 11.8 °F - 5.0 °F 74% 30.16 in 10.0 mi Calm Calm - N/A   Overcast
7:55 PM 10.8 °F - 4.8 °F 77% 30.16 in 10.0 mi Calm Calm - N/A   Overcast
8:15 PM 12.0 °F - 6.4 °F 78% 30.17 in 10.0 mi Calm Calm - N/A   Overcast
8:35 PM 13.1 °F - 6.3 °F 74% 30.17 in 10.0 mi Calm Calm - N/A   Overcast
8:55 PM 13.6 °F - 6.6 °F 74% 30.17 in 10.0 mi Calm Calm - N/A   Mostly Cloudy
9:15 PM 13.1 °F 7.1 °F 5.9 °F 73% 30.18 in 10.0 mi SSW 3.5 mph - N/A   Mostly Cloudy
9:35 PM 13.1 °F - 6.1 °F 74% 30.18 in 10.0 mi Calm Calm - N/A   Scattered Clouds
9:55 PM 13.1 °F - 6.3 °F 74% 30.18 in 10.0 mi Calm Calm - N/A   Scattered Clouds
10:15 PM 13.1 °F - 6.4 °F 75% 30.19 in 10.0 mi Calm Calm - N/A   Scattered Clouds
10:35 PM 12.0 °F - 5.0 °F 73% 30.19 in 10.0 mi Calm Calm - N/A   Scattered Clouds
10:55 PM 10.8 °F - 4.5 °F 76% 30.20 in 10.0 mi Calm Calm - N/A   Mostly Cloudy
11:15 PM 10.8 °F - 5.0 °F 78% 30.20 in 10.0 mi Calm Calm - N/A   Mostly Cloudy
11:35 PM 10.8 °F - 4.8 °F 77% 30.20 in 10.0 mi Calm Calm - N/A   Clear
11:55 PM 10.8 °F - 5.0 °F 78% 30.21 in 10.0 mi Calm Calm - N/A   Scattered Clouds